Bingham Lake, MN

5:16 PM CST on February 22, 2017 (GMT -0600)
Windom Municipal

Weather History for KMWM - February, 2011

Change the Weather History Date:

Thursday, February 3, 2011

  Actual Average Record
Temperature  
Mean Temperature 6 °F -  
Max Temperature 14 °F 25 °F 51 °F (2005)
Min Temperature -2 °F 4 °F -24 °F (1989)
Degree Days  
Heating Degree Days 59    
Moisture  
Dew Point -1 °F    
Average Humidity 70    
Maximum Humidity 79    
Minimum Humidity 61    
Precipitation  
Precipitation 0.00 in - - ()
Sea Level Pressure  
Sea Level Pressure 30.15 in    
Wind  
Wind Speed 16 mph (SW)    
Max Wind Speed 25 mph    
Max Gust Speed 32 mph    
Visibility 10 miles    
Events Snow    
Averages and records for this station are not official NWS values.
T = Trace of Precipitation, MM = Missing Value Source: NWS Daily Summary

Daily Weather History Graph

Daily Weather History Graph

Search for Another Location

Airport or City:

Trip Planner

Search our weather history database for the weather conditions in past years. The results will help you decide how hot, cold, wet, or windy it might be!

Date:

Astronomy

Feb. 03, 2011 Rise Set
Actual Time 7:35 AM CST 5:33 PM CST
Civil Twilight 7:05 AM CST 6:03 PM CST
Nautical Twilight 6:30 AM CST 6:38 PM CST
Astronomical Twilight 5:57 AM CST 7:12 PM CST
Moon 7:34 AM CST (2/3) 6:31 PM CST (2/3)
Length of Visible Light 10h 58m
Length of Day
9h 57m
New Moon, 0% of the Moon is Illuminated
Feb 3
New Moon
Feb 11
First Quarter
Feb 18
Full
Feb 24
Last Quarter
Mar 4
New

Hourly Weather History & Observations

Time (CST) Temp. Windchill Dew Point Humidity Pressure Visibility Wind Dir Wind Speed Gust Speed Precip Events Conditions
12:12 AM -2.2 °F -19.9 °F -9.4 °F 71% 30.37 in 10.0 mi SSW 11.5 mph - N/A   Clear
12:32 AM -2.2 °F -21.5 °F -9.4 °F 71% 30.35 in 10.0 mi SW 13.8 mph - N/A   Clear
12:53 AM -2.2 °F -21.5 °F -9.4 °F 71% 30.34 in 10.0 mi SSW 13.8 mph - N/A   Clear
1:12 AM -0.4 °F -21.2 °F -7.6 °F 72% 30.33 in 10.0 mi SW 17.3 mph - N/A   Clear
1:33 AM -0.4 °F -19.9 °F -7.6 °F 72% 30.32 in 10.0 mi SSW 15.0 mph - N/A   Clear
1:52 AM -0.4 °F -19.9 °F -7.6 °F 72% 30.32 in 10.0 mi SSW 15.0 mph - N/A   Clear
2:13 AM -2.2 °F -22.2 °F -9.4 °F 71% 30.30 in 10.0 mi SSW 15.0 mph - N/A   Clear
2:32 AM -2.2 °F -22.2 °F -9.4 °F 71% 30.30 in 10.0 mi SSW 15.0 mph - N/A   Clear
2:52 AM -0.4 °F -19.9 °F -7.6 °F 72% 30.29 in 10.0 mi SSW 15.0 mph - N/A   Clear
3:13 AM -0.4 °F -21.7 °F -7.6 °F 72% 30.29 in 10.0 mi SSW 18.4 mph 23.0 mph N/A   Clear
3:32 AM -0.4 °F -21.7 °F -7.6 °F 72% 30.28 in 10.0 mi SSW 18.4 mph 23.0 mph N/A   Clear
3:52 AM 1.4 °F -18.8 °F -7.6 °F 66% 30.27 in 10.0 mi SSW 17.3 mph - N/A   Clear
4:13 AM 1.4 °F -19.4 °F -7.6 °F 66% 30.26 in 10.0 mi SSW 18.4 mph - N/A   Clear
4:32 AM 1.4 °F -19.4 °F -7.6 °F 66% 30.25 in 10.0 mi SSW 18.4 mph - N/A   Clear
4:53 AM 1.4 °F -18.8 °F -7.6 °F 66% 30.24 in 10.0 mi SSW 17.3 mph - N/A   Clear
5:12 AM 1.4 °F -19.4 °F -7.6 °F 66% 30.22 in 10.0 mi SSW 18.4 mph - N/A   Clear
5:52 AM 1.4 °F -18.2 °F -7.6 °F 66% 30.21 in 10.0 mi SSW 16.1 mph - N/A   Clear
6:13 AM 1.4 °F -19.4 °F -7.6 °F 66% 30.20 in 10.0 mi SSW 18.4 mph 23.0 mph N/A   Clear
6:32 AM 1.4 °F -18.8 °F -5.8 °F 72% 30.19 in 10.0 mi SSW 17.3 mph - N/A   Clear
6:52 AM 3.2 °F -17.6 °F -5.8 °F 66% 30.17 in 10.0 mi SSW 19.6 mph 25.3 mph N/A   Clear
7:12 AM 3.2 °F -16.5 °F -5.8 °F 66% 30.17 in 10.0 mi SSW 17.3 mph - N/A   Clear
7:33 AM 3.2 °F -17.1 °F -5.8 °F 66% 30.17 in 10.0 mi SSW 18.4 mph - N/A   Clear
7:52 AM 3.2 °F -18.1 °F -5.8 °F 66% 30.16 in 10.0 mi SSW 20.7 mph 25.3 mph N/A   Clear
8:12 AM 3.2 °F -17.6 °F -5.8 °F 66% 30.16 in 10.0 mi SSW 19.6 mph 25.3 mph N/A   Clear
8:33 AM 3.2 °F -18.1 °F -5.8 °F 66% 30.15 in 10.0 mi SSW 20.7 mph 28.8 mph N/A   Clear
8:52 AM 5.0 °F -14.2 °F -5.8 °F 61% 30.14 in 7.0 mi SSW 17.3 mph 24.2 mph N/A   Clear
9:32 AM 6.8 °F -12.9 °F -4.0 °F 61% 30.12 in 10.0 mi SSW 19.6 mph 27.6 mph N/A   Scattered Clouds
9:53 AM 6.8 °F -12.9 °F -2.2 °F 67% 30.12 in 0.2 mi SW 19.6 mph 25.3 mph N/A Snow Light Snow
10:12 AM 6.8 °F -12.4 °F -2.2 °F 67% 30.12 in 10.0 mi SW 18.4 mph 24.2 mph N/A   Scattered Clouds
10:33 AM 6.8 °F -12.9 °F -2.2 °F 67% 30.11 in 10.0 mi SW 19.6 mph - N/A   Clear
10:52 AM 8.6 °F -12.7 °F -2.2 °F 62% 30.10 in 10.0 mi SW 25.3 mph 32.2 mph N/A   Clear
11:13 AM 8.6 °F -11.9 °F -0.4 °F 67% 30.11 in 10.0 mi SW 23.0 mph 28.8 mph N/A   Clear
11:32 AM 8.6 °F -11.0 °F -0.4 °F 67% 30.10 in 10.0 mi SSW 20.7 mph 27.6 mph N/A   Clear
11:52 AM 8.6 °F -11.4 °F -0.4 °F 67% 30.10 in 10.0 mi SW 21.9 mph - N/A   Clear
12:12 PM 8.6 °F -11.9 °F 1.4 °F 73% 30.09 in 10.0 mi SW 23.0 mph 29.9 mph N/A   Clear
12:52 PM 10.4 °F -9.1 °F 1.4 °F 67% 30.09 in 10.0 mi SW 21.9 mph 27.6 mph N/A   Clear
1:12 PM 10.4 °F -9.5 °F 1.4 °F 67% 30.07 in 10.0 mi SW 23.0 mph 29.9 mph N/A   Clear
1:33 PM 10.4 °F -9.1 °F 1.4 °F 67% 30.06 in 10.0 mi SW 21.9 mph 29.9 mph N/A   Scattered Clouds
1:52 PM 12.2 °F -6.7 °F 3.2 °F 67% 30.05 in 10.0 mi SW 21.9 mph - N/A   Clear
2:12 PM 12.2 °F -4.8 °F 3.2 °F 67% 30.05 in 10.0 mi SW 17.3 mph - N/A   Clear
2:32 PM 12.2 °F -6.3 °F 3.2 °F 67% 30.04 in 10.0 mi SW 20.7 mph 28.8 mph N/A   Clear
2:53 PM 12.2 °F -6.3 °F 3.2 °F 67% 30.04 in 10.0 mi SW 20.7 mph - N/A   Clear
3:12 PM 12.2 °F -5.3 °F 5.0 °F 73% 30.04 in 10.0 mi SW 18.4 mph 24.2 mph N/A   Clear
3:33 PM 14.0 °F -1.4 °F 5.0 °F 67% 30.05 in 10.0 mi SW 15.0 mph 21.9 mph N/A   Clear
3:50 PM 14.0 °F -2.0 °F 5.0 °F 67% 30.05 in 10.0 mi SW 16.1 mph 19.6 mph N/A   Clear
4:11 PM 14.0 °F -2.5 °F 5.0 °F 67% 30.04 in 10.0 mi SW 17.3 mph 21.9 mph N/A   Clear
4:33 PM 14.0 °F -1.4 °F 5.0 °F 67% 30.05 in 10.0 mi SW 15.0 mph - N/A   Clear
4:52 PM 14.0 °F -0.8 °F 5.0 °F 67% 30.05 in 10.0 mi SW 13.8 mph 19.6 mph N/A   Clear
5:12 PM 14.0 °F -1.4 °F 5.0 °F 67% 30.06 in 10.0 mi SW 15.0 mph 20.7 mph N/A   Clear
5:32 PM 14.0 °F -3.0 °F 6.8 °F 73% 30.05 in 10.0 mi SW 18.4 mph 23.0 mph N/A   Clear
5:52 PM 12.2 °F -3.7 °F 6.8 °F 79% 30.05 in 10.0 mi SW 15.0 mph - N/A   Clear
6:13 PM 12.2 °F -3.1 °F 6.8 °F 79% 30.07 in 10.0 mi SW 13.8 mph - N/A   Clear
6:32 PM 12.2 °F -4.3 °F 6.8 °F 79% 30.07 in 10.0 mi SW 16.1 mph - N/A   Clear
6:53 PM 12.2 °F -3.1 °F 6.8 °F 79% 30.08 in 10.0 mi SW 13.8 mph 18.4 mph N/A   Clear
7:12 PM 12.2 °F -3.7 °F 6.8 °F 79% 30.07 in 10.0 mi SW 15.0 mph - N/A   Clear
7:33 PM 12.2 °F -1.8 °F 6.8 °F 79% 30.07 in 10.0 mi WSW 11.5 mph - N/A   Clear
7:52 PM 12.2 °F -0.2 °F 6.8 °F 79% 30.06 in 10.0 mi WSW 9.2 mph - N/A   Clear
8:12 PM 12.2 °F 0.7 °F 6.8 °F 79% 30.06 in 10.0 mi SW 8.1 mph - N/A   Clear
8:32 PM 12.2 °F -3.1 °F 6.8 °F 79% 30.04 in 10.0 mi SW 13.8 mph - N/A   Clear
8:52 PM 12.2 °F -2.5 °F 6.8 °F 79% 30.03 in 10.0 mi SW 12.7 mph - N/A   Clear
9:13 PM 14.0 °F -1.4 °F 6.8 °F 73% 30.04 in 10.0 mi SW 15.0 mph - N/A   Clear
9:32 PM 14.0 °F -2.0 °F 6.8 °F 73% 30.03 in 10.0 mi SW 16.1 mph - N/A   Clear
9:52 PM 15.8 °F 0.9 °F 8.6 °F 73% 30.03 in 10.0 mi SW 15.0 mph - N/A   Clear
10:13 PM 15.8 °F 1.4 °F 8.6 °F 73% 30.03 in 10.0 mi SW 13.8 mph - N/A   Clear
10:32 PM 15.8 °F 2.7 °F 8.6 °F 73% 30.04 in 10.0 mi SW 11.5 mph - N/A   Clear
10:52 PM 14.0 °F -0.2 °F 8.6 °F 79% 30.03 in 10.0 mi SW 12.7 mph - N/A   Clear
11:13 PM 14.0 °F -0.2 °F 8.6 °F 79% 30.03 in 10.0 mi SW 12.7 mph - N/A   Clear
11:32 PM 14.0 °F -0.8 °F 8.6 °F 79% 30.02 in 10.0 mi SW 13.8 mph - N/A   Clear
11:52 PM 14.0 °F -0.8 °F 6.8 °F 73% 30.01 in 10.0 mi SSW 13.8 mph - N/A   Clear